This demonstration page uses our WeatherBlox Daily Observations layout. Learn more.

38.89511, -77.03637

Hourly Observations for September 27, 2016

Temp ( °F °C ) Dew Point ( °F °C ) Humidity (%) Winds ( mph kmh ) Pressure ( in mb ) Visibility ( mi km ) Precip ( " mm )
12:52 am 00:52 Cloudy 67 19.4 66 18.9 97 97 SSW 5 7 29.96 1015 10 16.0934 0 0
1:52 am 01:52 Cloudy 67 19.4 66 18.9 97 97 SSW 5 7 29.96 1014 10 16.0934 0 0
2:42 am 02:42 Cloudy with Rain 66 19 66 19 100 100 SW 7 11 29.97 1015 4 6.43736 0 0
2:52 am 02:52 Cloudy with Heavy Rain 67 19.4 66 18.9 97 97 SW 8 13 29.96 1015 3 4.82802 0.07 1.778
3:01 am 03:01 Cloudy with Rain 67 19.4 66 18.9 97 97 SSW 8 13 29.97 1015 4 6.43736 0.02 0.508
3:14 am 03:14 Cloudy with Rain 66 19 66 19 100 100 SW 5 7 29.97 1015 4 6.43736 0 0
3:48 am 03:48 Cloudy with Light Rain 66 19 66 19 100 100 WSW 3 6 29.94 1014 4 6.43736 0 0
3:52 am 03:52 Cloudy with Light Rain 67 19.4 67 19.4 100 100 WSW 3 6 29.95 1014 4 6.43736 0.23 5.842
4:12 am 04:12 Cloudy with Light Rain 66 19 66 19 100 100 SSW 5 7 29.94 1014 8 12.87472 0 0
4:47 am 04:47 Cloudy with Rain 66 19 66 19 100 100 S 5 7 29.94 1014 5 8.0467 0.04 1.016
4:52 am 04:52 Cloudy with Light Rain 67 19.4 67 19.4 100 100 S 5 7 29.95 1014 5 8.0467 0.04 1.016
5:13 am 05:13 Cloudy with Rain 67 19.4 67 19.4 100 100 S 5 7 29.94 1014 6 9.65604 0.06 1.524
5:52 am 05:52 Cloudy with Light Rain 67 19.4 66 18.9 97 97 S 3 6 29.94 1014 9 14.48406 0.09 2.286
6:12 am 06:12 Cloudy with Light Rain 66 19 66 19 100 100 Calm 29.94 1014 10 16.0934 0 0
6:52 am 06:52 Cloudy 68 20 67 19.4 96 96 N 8 13 29.95 1014 10 16.0934 0 0.0254
7:30 am 07:30 Cloudy 66 19 64 18 94 94 N 9 15 29.97 1015 10 16.0934 0 0
7:52 am 07:52 Cloudy 67 19.4 64 17.8 91 91 NNW 9 15 29.97 1015 10 16.0934 0 0
8:52 am 08:52 Cloudy 66 18.9 57 13.9 73 73 NNW 5 7 29.98 1015 10 16.0934 0 0
9:52 am 09:52 Cloudy 66 18.9 56 13.3 70 70 NW 9 15 30 1016 10 16.0934 0 0
10:52 am 10:52 Cloudy 67 19.4 58 14.4 73 73 NNW 7 11 30 1016 10 16.0934 0 0
11:52 am 11:52 Cloudy 70 21.1 58 14.4 66 66 VRB 6 9 29.98 1015 10 16.0934 0 0
12:52 pm 12:52 Mostly Cloudy 72 22.2 54 12.2 53 53 VRB 3 6 29.96 1015 10 16.0934 0 0
1:52 pm 13:52 Mostly Cloudy 74 23.3 50 10 43 43 Calm 29.94 1014 10 16.0934 0 0
2:52 pm 14:52 Partly Cloudy 76 24.4 52 11.1 43 43 S 5 7 29.91 1013 10 16.0934 0 0
3:52 pm 15:52 Partly Cloudy 76 24.4 57 13.9 52 52 S 8 13 29.9 1013 10 16.0934 0 0
4:52 pm 16:52 Partly Cloudy 76 24.4 58 14.4 54 54 S 8 13 29.89 1012 10 16.0934 0 0
5:52 pm 17:52 Partly Cloudy 75 23.9 59 15 58 58 S 7 11 29.9 1012 10 16.0934 0 0
6:52 pm 18:52 Mostly Sunny 71 21.7 59 15 66 66 S 9 15 29.9 1013 10 16.0934 0 0
7:52 pm 19:52 Mostly Clear 70 21.1 60 15.6 71 71 SE 7 11 29.92 1013 10 16.0934 0 0
8:52 pm 20:52 Mostly Clear 68 20 63 17.2 84 84 SSE 6 9 29.93 1014 10 16.0934 0 0
9:52 pm 21:52 Mostly Clear 66 18.9 64 17.8 93 93 S 6 9 29.94 1014 10 16.0934 0 0
10:52 pm 22:52 Mostly Clear 66 18.9 64 17.8 93 93 SSE 3 6 29.94 1014 10 16.0934 0 0
11:52 pm 23:52 Mostly Clear 66 18.9 64 17.8 93 93 Calm 29.95 1014 10 16.0934 0 0

Powered by AerisWeather